This is the latest recevied weather packets stored in our database for station/object KD4EED. If no packets are shown the sender has not sent any weather packets the latest 10 day(s).
| Time | Temp. | Humidity | Pressure | Rain* | Wind** | Luminosity | Snow |
|---|---|---|---|---|---|---|---|
| 1777920976 | 20.56° C | 52% | 1013.5 hPa | - | - | 885 W/m² | - |
| 1777920673 | 20.56° C | 53% | 1013.6 hPa | - | - | 795 W/m² | - |
| 1777920369 | 20° C | 53% | 1013.6 hPa | - | - | 836 W/m² | - |
| 1777920064 | 20.56° C | 52% | 1013.6 hPa | - | - | 597 W/m² | - |
| 1777919761 | 20° C | 54% | 1013.6 hPa | - | - | 685 W/m² | - |
| 1777919459 | 20° C | 54% | 1013.5 hPa | - | - | 897 W/m² | - |
| 1777919156 | 19.44° C | 54% | 1013.6 hPa | - | - | 639 W/m² | - |
| 1777918853 | 20° C | 53% | 1013.4 hPa | - | - | 746 W/m² | - |
| 1777918550 | 20° C | 54% | 1013.3 hPa | - | - | 669 W/m² | - |
| 1777918248 | 20° C | 52% | 1013.6 hPa | - | - | 590 W/m² | - |
| 1777917947 | 20.56° C | 52% | 1013.6 hPa | - | - | 350 W/m² | - |
| 1777917646 | 20° C | 53% | 1013.6 hPa | - | - | 909 W/m² | - |
| 1777917342 | 19.44° C | 54% | 1013.5 hPa | - | - | 836 W/m² | - |
| 1777917039 | 19.44° C | 55% | 1013.4 hPa | - | - | 696 W/m² | - |
| 1777916737 | 19.44° C | 54% | 1013.5 hPa | - | - | 719 W/m² | - |
| 1777916434 | 19.44° C | 54% | 1013.4 hPa | - | - | 702 W/m² | - |
| 1777916131 | 19.44° C | 55% | 1013.3 hPa | - | - | 679 W/m² | - |
| 1777915828 | 20° C | 55% | 1013.4 hPa | - | - | 487 W/m² | - |
| 1777915524 | 19.44° C | 56% | 1013.3 hPa | - | - | 663 W/m² | - |
| 1777915221 | 20° C | 57% | 1013.5 hPa | - | - | 438 W/m² | - |
| 1777914918 | 19.44° C | 59% | 1013.3 hPa | - | - | 641 W/m² | - |
| 1777914615 | 20° C | 58% | 1013 hPa | - | - | 515 W/m² | - |
| 1777914310 | 19.44° C | 58% | 1013.3 hPa | - | - | 643 W/m² | - |
| 1777914009 | 19.44° C | 59% | 1012.9 hPa | - | - | 597 W/m² | - |
| 1777913704 | 18.89° C | 60% | 1013.1 hPa | - | - | 581 W/m² | - |
* Rain since midnight (hover to see other rain measurements)
** Current wind speed in m/s (hover to see current wind gust speed)